sat.trackr.live / text

‹ back to catalog

STARLINK-6138

NORAD 57329 · 2023-099B

PAYLOAD ACTIVE UNKNOWN

§ Identity

Operator
Country
US
Launch date
2023-07-16
Launch site
AFETR
Launch vehicle
Mass (kg)
RCS (m²)

Purposes: comms

External: N2YO · Heavens-Above · Gunter

§ Orbital elements

Epoch: 2026-09-20T04:44:35.420352Z

Period
94.27 min
Inclination
43.0016°
Eccentricity
0.0001365
Mean motion
15.27577217 rev/d
Perigee alt
482.1 km
Apogee alt
484.0 km
Semi-major
6,861.2 km
B*
2.4099e-5
RAAN
233.9488°
Arg perigee
266.1282°
Mean anomaly
93.9414°
Rev number
17,582

§ Raw data

STARLINK-61381 57329U 23099B   26263.19763218  .00000401  00000+0  24099-4 0  99972 57329  43.0016 233.9488 0001365 266.1282  93.9414 15.27577217175828

JSON: /api/v1/satellites/57329 · /tle

For live sub-satellite position, see the globe view (requires WebGL).

§ Visibility from observer

Set your observer location to see the next 7 days of passes ≥ 10°. The values pass through the URL so the page stays shareable.

No JS? Fill the form by hand. The geolocation button needs JavaScript.